Flag for Belarus Weather past 2 weeks in Minsk, Belarus

Now
32 °F

Overcast.


Feels Like: 26 °F
Forecast: 25 / 38 °F
Wind: 6 mph from Northwest

Location: Loshitsa / Minsk International 1

Current Time: Mar 5, 2015 at 9:47:49 AM

Latest Report: Mar 5, 2015 at 9:30 AM


Visibility: N/A

Pressure: 30.09 "Hg

Humidity: 100%

Dew point: 32 °F

Location of MinskLocation

Historic Weather in Minsk — Graph

°F

Minsk temperature yesterday

Maximum temperature yesterday: 39 °F (at 4:00 PM)
Minimum temperature yesterday: 30 °F (at 10:00 AM)
Average temperature yesterday: 34 °F

Past Weeks' High & Low Weather Summary

 TemperatureHumidityPressure
High41 °F (Feb 21, 4:00 PM)100% (Feb 19, 8:00 AM)30.54 "Hg (Feb 19, 8:00 AM)
Low18 °F (Feb 18, 8:00 AM)58% (Feb 18, 11:00 AM)29.59 "Hg (Mar 2, 7:00 PM)
Average36 °F88%29.94 "Hg
* Reported Feb 18 8:00 AM — Mar 5 8:30 AM, Minsk, Weather by CustomWeather, © 2015

Note: Actual official high and low records may vary slightly from our data, if they occured in-between our weather recording intervals... More about our weather records

Advertising

Minsk weather history for previous 24 hours

 ConditionsComfort  
Time TempWeatherWind HumidityBarometerVisibility
8:30 AM
Thu, Mar 5
32 °FMostly cloudy.6 mph100%30.07 "HgN/A
8:00 AM32 °FMostly cloudy.6 mph100%30.07 "HgN/A
7:30 AM32 °FOvercast.6 mph100%30.07 "HgN/A
7:00 AM32 °FIce fog.1 mph100%30.04 "Hg2 mi
11:00 PM
Wed, Mar 4
34 °FFog.3 mph93%29.95 "Hg3 mi
10:30 PM34 °FFog.6 mph93%29.95 "Hg3 mi
10:00 PM34 °FFog.3 mph93%29.95 "Hg3 mi
9:30 PM34 °FSnow flurries. Low clouds.3 mph93%29.95 "Hg3 mi
9:00 PM34 °FSnow flurries. Low clouds.6 mph93%29.95 "Hg1 mi
8:30 PM34 °FSnow showers. Low clouds.3 mph100%29.95 "Hg1 mi
8:00 PM34 °FSnow showers. Low clouds.8 mph100%29.95 "Hg1 mi
7:30 PM36 °FSnow showers. Low clouds.8 mph93%29.92 "Hg1 mi
7:00 PM36 °FSnow flurries. Low clouds.6 mph93%29.92 "Hg2 mi
6:30 PM36 °FSnow flurries. Low clouds.8 mph93%29.92 "Hg4 mi
6:00 PM36 °FSnow flurries. Low clouds.8 mph93%29.92 "Hg4 mi
5:45 PM39 °FSnow flurries. Low clouds.10 mph70%29.92 "Hg3 mi
5:30 PM39 °FSnow flurries. Low clouds.10 mph70%29.92 "Hg1 mi
5:00 PM39 °FOvercast.6 mph70%29.92 "HgN/A
4:30 PM39 °FMore clouds than sun.8 mph70%29.92 "HgN/A
4:00 PM39 °FBroken clouds.10 mph70%29.95 "HgN/A
3:30 PM37 °FBroken clouds.10 mph75%29.95 "HgN/A
3:00 PM37 °FPartly sunny.6 mph75%29.95 "HgN/A
2:30 PM36 °FPartly sunny.6 mph81%29.95 "HgN/A
2:00 PM36 °FPartly sunny.6 mph81%29.98 "HgN/A
1:30 PM34 °FPartly sunny.6 mph87%29.98 "HgN/A
1:00 PM34 °FPartly sunny.6 mph87%29.98 "Hg4 mi
12:30 PM32 °FLow clouds.6 mph93%29.98 "Hg4 mi
12:00 PM32 °FIce fog.3 mph93%29.98 "Hg3 mi
11:30 AM32 °FIce fog.3 mph93%29.98 "Hg2 mi
11:00 AM32 °FIce fog.3 mph93%29.98 "Hg3 mi
10:30 AM30 °FIce fog.3 mph100%29.98 "Hg3 mi
10:00 AM30 °FIce fog.3 mph100%29.98 "Hg3 mi
9:30 AM32 °FLow clouds.6 mph87%29.98 "Hg3 mi
9:00 AM32 °FPartly sunny.6 mph87%29.98 "Hg4 mi
Weather by CustomWeather, © 2015

See weather overviewHow to use our weather pages